Regional Weather Roundup
Issued by NWS Little Rock, AR

Home | Current Version | Previous Version | Text Only | Print | Product List | Glossary Off
Versions: 1 2 3 4 5 6 7 8 9 10 11 12 13 14 15 16 17 18 19 20 21 22 23 24 25 26 27 28 29 30 31 32 33 34 35 36 37 38 39 40 41 42 43 44 45 46 47 48 49 50

000
ASUS44 KLZK 201705
RWRLZK

WEATHER ROUNDUP FOR ARKANSAS
NATIONAL WEATHER SERVICE LITTLE ROCK AR
1100 AM CST SAT DEC 20 2014

NOTE: "FAIR" INDICATES FEW OR NO CLOUDS BELOW 12,000 FEET WITH NO
SIGNIFICANT WEATHER AND/OR OBSTRUCTIONS TO VISIBILITY.

ARZ001-003-010-029-201800-
NORTHWEST ARKANSAS

CITY           SKY/WX    TMP DP  RH WIND       PRES   REMARKS
FAYETTEVILLE   CLOUDY    41  37  86 CALM      30.24S
FORT SMITH     CLOUDY    44  39  82 CALM      30.27S HAZE
HARRISON       CLOUDY    40  39  97 CALM      30.24S FOG
BENTONVILLE    CLOUDY    43  36  75 CALM      30.24S
ROGERS         CLOUDY    41  38  89 N3        30.24S
SILOAM SPGS    CLOUDY    43  34  70 CALM      30.25S
HIGHFILL       CLOUDY    43  38  82 SW3       30.23S
SPRINGDALE     CLOUDY    43  37  81 CALM      30.25S
$$

ARZ004-005-016-201800-
NORTH CENTRAL ARKANSAS

CITY           SKY/WX    TMP DP  RH WIND       PRES   REMARKS
BATESVILLE     CLOUDY    41  34  75 CALM      30.28F
FLIPPIN        CLOUDY    39  34  81 CALM      30.26S
MTN HOME       CLOUDY    39  38  96 CALM      30.25S FOG
$$

ARZ040-041-201800-
WEST CENTRAL ARKANSAS

CITY           SKY/WX    TMP DP  RH WIND       PRES   REMARKS
MENA           CLOUDY    46  43  87 CALM      30.25S
MOUNT IDA      CLOUDY    45  39  79 CALM      30.23F
$$

ARZ009-017-025-026-028-201800-
NORTHEAST ARKANSAS

CITY           SKY/WX    TMP DP  RH WIND       PRES   REMARKS
CORNING        PTSUNNY   41  34  75 NE3       30.30F
JONESBORO      CLOUDY    42  35  76 E5        30.29F
NEWPORT        CLOUDY    42  36  79 NE3       30.30F
WALNUT RIDGE   CLOUDY    41  34  75 NE5       30.29F
BLYTHEVILLE    CLOUDY    44  34  67 E5        30.30S
$$

ARZ022-023-033-042-044-201800-
CENTRAL ARKANSAS

CITY           SKY/WX    TMP DP  RH WIND       PRES   REMARKS
LITTLE ROCK    CLOUDY    44  35  70 CALM      30.29F
N LITTLE ROCK  CLOUDY    43  37  81 E5        30.29F
JACKSONVILLE   CLOUDY    42  35  76 CALM      30.29R
SEARCY         CLOUDY    42  35  76 E3        30.31S
HOT SPRINGS    CLOUDY    44  38  79 VRB3      30.28S
RUSSELLVILLE   CLOUDY    44  36  73 VRB3      30.27S
CLINTON        CLOUDY    43  37  81 CALM      30.29F HAZE
$$

ARZ036-201800-
EAST ARKANSAS

CITY           SKY/WX    TMP DP  RH WIND       PRES   REMARKS
WEST MEMPHIS   CLOUDY    44  33  65 SE5       30.28S
$$

ARZ050-053-066-070-073-201800-
SOUTHWEST ARKANSAS

CITY           SKY/WX    TMP DP  RH WIND       PRES   REMARKS
ARKADELPHIA    CLOUDY    44  41  89 CALM      30.30S
CAMDEN         CLOUDY    46  37  71 MISG      30.29S
TEXARKANA      CLOUDY    44  40  85 NE5       30.27F
EL DORADO      MOSUNNY   47  40  76 NE5       30.27F
DE QUEEN       CLOUDY    45  41  86 CALM      30.26F FOG
$$

ARZ056-057-069-201800-
SOUTHEAST ARKANSAS

CITY           SKY/WX    TMP DP  RH WIND       PRES   REMARKS
PINE BLUFF     CLOUDY    44  36  73 NE6       30.29F
STUTTGART      CLOUDY    45  36  70 E5        30.29F
MONTICELLO     SUNNY     47  36  65 NE6       30.28S

$$





USA.gov is the U.S. government's official web portal to all federal, state and local government web resources and services.